Other Public Products
Issued by NWS Grand Forks, ND

Home | Current Version | Previous Version | Graphics & Text | Print | Product List | Glossary On
Versions: 1 2 3 4 5 6 7 8 9 10 11 12 13 14 15 16 17 18 19 20 21 22 23 24 25 26 27 28 29 30 31 32 33 34 35 36 37 38 39 40 41 42 43 44 45 46 47 48 49 50
000
FPUS83 KFGF 271231
OPUFGF
PRAIRIE TO PINES WEATHER ROUNDUP
NATIONAL WEATHER SERVICE EASTERN NORTH DAKOTA/GRAND FORKS ND
600 AM CST MON FEB 27 2017

 **SATELLITE DATA USED TO AUGMENT SKY COVER AT AUTOMATED STATIONS**
 *****  WEATHER ACROSS EASTERN NORTH DAKOTA  *****

CITY           SKY/WX    TMP DP  RH WIND       PRES   REMARKS
GRAND FORKS    MOCLDY    12   4  70 S8        29.90R WCI   0
6HR MIN TEMP:   5; 6HR MAX TEMP:  13;

GRAND FORKS AF FAIR      12   7  79 SW8       29.89R WCI   0
GRAND CITY NWS NOT AVBL
BUXTON         NOT AVBL
DEVILS LAKE    FAIR      10   7  87 SW5       29.84S WCI   2
6HR MIN TEMP:   2; 6HR MAX TEMP:  11;

FARGO          CLOUDY    22  16  78 E3        29.90F
6HR MIN TEMP:  20; 6HR MAX TEMP:  22;

WAHPETON ARPT    N/A     19  14  79 NE3       29.90S
$$

 *****  WEATHER ACROSS CENTRAL AND WESTERN NORTH DAKOTA  *****

CITY           SKY/WX    TMP DP  RH WIND       PRES   REMARKS
JAMESTOWN      CLOUDY    20  17  88 CALM      29.85R
6HR MIN TEMP:  18; 6HR MAX TEMP:  22;

BISMARCK       CLOUDY    11   8  88 NE7       29.83F WCI   0
6HR MIN TEMP:   9; 6HR MAX TEMP:  14;

MINOT          CLOUDY    15   7  70 W10       29.81R WCI   2
6HR MIN TEMP:  13; 6HR MAX TEMP:  16;

MINOT AFB      FAIR      11   5  76 NW6       29.81R WCI   2
6HR MIN TEMP:   6; 6HR MAX TEMP:  14;

GARRISON         N/A     12   9  87 CALM      29.80R
6HR MIN TEMP:   3; 6HR MAX TEMP:  12;

WILLISTON      LGT SNOW  12   8  84 NE10      29.81S FOG     WCI  -1
6HR MIN TEMP:  10; 6HR MAX TEMP:  14; 6HR PCP:  0.01;

DICKINSON      LGT SNOW  18  15  88 SE8       29.71F FOG     WCI   8
6HR MIN TEMP:  13; 6HR MAX TEMP:  19; 6HR PCP: TRACE;

HETTINGER      CLOUDY    20  16  84 E10       29.72F FOG     WCI   9
6HR MIN TEMP:  20; 6HR MAX TEMP:  20; 6HR PCP: TRACE;

$$

 *****  OTHER OBSERVATIONS NORTHEAST NORTH DAKOTA  *****

CITY           SKY/WX    TMP DP  RH WIND       PRES   REMARKS
WALHALLA       NOT AVBL
LANGDON        NOT AVBL
CAVALIER         N/A     12   9  85 S5        29.85F WCI   4
GRAFTON        FAIR      10   7  85 S8        29.90S WCI  -1
CANDO          NOT AVBL
FORT TOTTEN      N/A     11  10  95 S2        29.95S
ROLLA          FAIR       9   9 100 W6        29.79S WCI  -1
RUGBY            N/A      5   3  92 SW8       29.83R WCI  -8
 ***** THE ABOVE OBSERVATIONS ARE NON NWS ARE NOT QUALITY
        CONTROLLED AND MAY MIS-REPORT RAIN FOR SNOW...
$$

 *****  OTHER OBSERVATIONS SOUTHEAST NORTH DAKOTA *****

CITY           SKY/WX    TMP DP  RH WIND       PRES   REMARKS
COOPERSTOWN    FAIR       5   1  85 S5        29.86S WCI  -4
VALLEY CITY    CLOUDY    16  16 100 CALM      29.88S
OAKES          NOT AVBL
GWINNER        FAIR      21  19  93 E6        29.87S WCI  14
SHEYENNE NWR     N/A     18  13  81 NE2       29.95S
BUFFALO        NOT AVBL
WYNDMERE         N/A     19  18  93 NE3         N/A
 ***** THE ABOVE OBSERVATIONS ARE NON NWS ARE NOT QUALITY
       CONTROLLED AND MAY MIS-REPORT RAIN FOR SNOW...
$$

  *****  WEATHER ACROSS NORTHERN MINNESOTA  *****

CITY           SKY/WX    TMP DP  RH WIND       PRES   REMARKS
FLAG ISLAND    FAIR       7   3  85 S3        29.85S
WARROAD        FAIR       9   3  78 SW8       29.87F WCI  -4
ROSEAU         FAIR       9   3  78 S8        29.88R WCI  -4
HALLOCK        FAIR      10   7  85 S9        29.87S WCI  -2
THF RVR FALLS  FAIR       8   5  87 S7        29.90S WCI  -3
HALSTAD          N/A     16  14  92 S2          N/A
FOSSTON        FAIR       9   7  92 S6        29.90R WCI  -1
BAUDETTE       FAIR       4   0  83 S7        29.87S WCI  -8
6HR MIN TEMP:   4; 6HR MAX TEMP:   8;

WASKISH        FAIR       7   3  85 CALM      29.89F
CROOKSTON      FAIR      10   9  92 S5        29.92S WCI   2
$$
  *****  WEATHER ACROSS CENTRAL AND WEST MINNESOTA  *****

CITY           SKY/WX    TMP DP  RH WIND       PRES   REMARKS
BEMIDJI        FAIR       0  -4  83 CALM      29.89S
PARK RAPIDS    CLOUDY    18   9  68 SE5       29.88S WCI  11
6HR MIN TEMP:  11; 6HR MAX TEMP:  18;

WADENA         MIX PCPN  16  10  79 E5        29.88F WCI   9
DETROIT LAKES  FAIR      19  12  73 SE5       29.89S WCI  13
MOORHEAD       MOCLDY    19  12  73 CALM      29.91F
FERGUS FALLS   FAIR      18  12  79 W5        29.93S WCI  11
ELBOW LAKE     FAIR      17  14  89 NE5       29.88S WCI  10
MORRIS MN      FAIR      19  16  86 E6        29.87S WCI  11
STAPLES        CLOUDY    16  10  79 CALM      29.90R
WHEATON        FAIR      18  16  93 CALM      29.91S
$$
  *****  WEATHER ELSEWHERE ACROSS MINNESOTA  *****

CITY           SKY/WX    TMP DP  RH WIND       PRES   REMARKS
DULUTH         CLOUDY    17  10  74 CALM      29.91S
6HR MIN TEMP:   4; 6HR MAX TEMP:  17;

INTRNTL FALLS  FAIR       0  -4  83 CALM      29.90S
6HR MIN TEMP:   0; 6HR MAX TEMP:   8;

ELY            FAIR      -8 -11  84 CALM      29.92F
CLOQUET        CLOUDY    16   9  73 CALM      29.92S
BRAINERD       CLOUDY    18  12  77 N5        29.91S WCI  11
6HR MIN TEMP:  16; 6HR MAX TEMP:  18;

HIBBING        CLOUDY     5   0  79 CALM      29.92S
6HR MIN TEMP:  -5; 6HR MAX TEMP:   5;

ALEXANDRIA     FAIR      19  17  92 NE5       29.88R WCI  12
6HR MIN TEMP:  19; 6HR MAX TEMP:  22;

SAINT CLOUD    FAIR      22  19  89 E7        29.90F WCI  13
6HR MIN TEMP:  22; 6HR MAX TEMP:  26; 6HR PCP: TRACE;

MINNEAPOLIS    FAIR      23  18  81 SE6       29.95S WCI  16
6HR MIN TEMP:  22; 6HR MAX TEMP:  30;

$$

  *****  WEATHER ACROSS SOUTH DAKOTA  *****

CITY           SKY/WX    TMP DP  RH WIND       PRES   REMARKS
SIOUX FALLS    FAIR      24  19  81 S6        29.90R WCI  17
6HR MIN TEMP:  23; 6HR MAX TEMP:  28;

BROOKINGS      FAIR      20  17  88 SE6       29.85F WCI  12
WATERTOWN      FAIR      20  17  88 S8        29.83S WCI  10
6HR MIN TEMP:  20; 6HR MAX TEMP:  28;

HURON          FAIR      20  17  88 S7        29.84F WCI  11
6HR MIN TEMP:  19; 6HR MAX TEMP:  27;

SISSETON         N/A     18  17  96 CALM      29.88R
ABERDEEN       CLOUDY    21  17  84 NE5       29.85S WCI  15
6HR MIN TEMP:  21; 6HR MAX TEMP:  25;

MITCHELL       FAIR      21  16  81 S6        29.87F WCI  13
PIERRE         CLOUDY    22  18  85 SE6       29.77F WCI  14
6HR MIN TEMP:  18; 6HR MAX TEMP:  27;

MOBRIDGE       CLOUDY    24  19  81 E12       29.76F WCI  13
RAPID CITY     FAIR      18  11  74 S7        29.65F WCI   9
6HR MIN TEMP:  18; 6HR MAX TEMP:  27;

$$

  *****  SOME WEATHER IN NEARBY STATES *****

CITY           SKY/WX    TMP DP  RH WIND       PRES   REMARKS
GLASGOW MT     CLOUDY    14  10  84 NE9       29.75S WCI   2
6HR MIN TEMP:  14; 6HR MAX TEMP:  19; 6HR PCP:  0.04;

GREAT FALLS MT CLOUDY     8   5  87 NE7       29.64F FOG     WCI  -3
6HR MIN TEMP:   8; 6HR MAX TEMP:  15; 6HR PCP:  0.08;

CHEYENNE WY    FAIR       8   2  76 W7        29.63F WCI  -3
6HR MIN TEMP:   6; 6HR MAX TEMP:  15;

SCOTTSBLUFF NE FAIR      14   6  70 E8        29.70F WCI   3
6HR MIN TEMP:  11; 6HR MAX TEMP:  18;

OMAHA NE       FAIR      25  19  78 S5        29.98S WCI  19
6HR MIN TEMP:  23; 6HR MAX TEMP:  30;

DES MOINES IA  FAIR      29  21  72 SE5       30.01S WCI  24
6HR MIN TEMP:  26; 6HR MAX TEMP:  34;

DAVENPORT IA   FAIR      26  23  88 SE7       30.08S WCI  18
6HR MIN TEMP:  25; 6HR MAX TEMP:  33;

CHICAGO IL     FAIR      29  23  78 S5        30.12R WCI  24
6HR MIN TEMP:  27; 6HR MAX TEMP:  38;

EAU CLAIRE WI  MOCLDY    22  19  89 S7        29.99R WCI  13
6HR MIN TEMP:  21; 6HR MAX TEMP:  26;

LA CROSSE WI   FAIR      24  20  84 SE6       30.05R WCI  17
6HR MIN TEMP:  24; 6HR MAX TEMP:  29;

$$

  *****  SOME NATIONAL WEATHER *****

CITY           SKY/WX    TMP DP  RH WIND       PRES   REMARKS
LA GUARDIA NY  FAIR      38  20  48 SW8       30.37S
6HR MIN TEMP:  37; 6HR MAX TEMP:  40;

RALEIGH NC     MOCLDY    41  23  48 SE5       30.40R



USA.gov is the U.S. government's official web portal to all federal, state and local government web resources and services.